Location: Alma
(38.7220°N, 88.9090°W)
Time: 05:52:34
(UTC-06:00)

Vanguard 2 Rocket - Pass Details

Date: 23 November 2019
Orbit: 554 x 3326 km, 32.9° (Epoch: 11 December)

Event Time Altitude Azimuth Distance (km) Brightness Sun altitude
Rises 22:00:58 0° 217° (SW) 3,338 - -61.6°
Reaches altitude 10° 22:04:48 10° 192° (SSW) 2,081 - -62.2°
Maximum altitude 22:07:11 14° 160° (SSE) 1,683 - -62.6°
Drops below altitude 10° 22:09:22 10° 127° (SE) 1,851 - -63.0°
Sets 22:12:24 0° 99° (E) 2,719 - -63.4°
